Home   Weather   Kleppestø   Past weeks

Flag for Norway Past Weather in Kleppestø, Norway — Yesterday and Last 2 Weeks

Now
47 °F

Cool.


Feels Like: 45 °F
Forecast: 38 / 43 °F
Wind: 5 mph from West

Location: Bergen / Florida

Current Time: Jan 20, 2017 at 7:13:15 am

Latest Report: Jan 20, 2017 at 6:00 am


Visibility: N/A

Pressure: 30.38 "Hg

Humidity: 86%

Dew Point: 43 °F

Location of KleppestøLocation

Past Weather in Kleppestø — Graph

°F

Kleppestø Temperature Yesterday

Maximum temperature yesterday: 48 °F (at 7:00 pm)
Minimum temperature yesterday: 46 °F (at 5:00 am)
Average temperature yesterday: 47 °F

High & Low Weather Summary for the Past Weeks

 TemperatureHumidityPressure
High48 °F (Jan 19, 7:00 pm)91% (Jan 19, 12:00 am)30.59 "Hg (Jan 19, 12:00 am)
Low20 °F (Jan 16, 7:00 am)33% (Jan 16, 6:00 pm)28.56 "Hg (Jan 11, 9:00 am)
Average37 °F80%29.90 "Hg
* Reported Jan 5 5:00 am — Jan 20 5:00 am, Kleppestø, Weather by CustomWeather, © 2017

Note: Actual official high and low records may vary slightly from our data, if they occured in-between our weather recording intervals... More about our weather records

Advertising

Kleppestø Weather History for the Previous 24 Hours

Scroll right to see more
 ConditionsComfort  
Time TempWeatherWind HumidityBarometerVisibility
5:00 am
Fri, Jan 20
47 °FCool.6 mph85%30.39 "HgN/A
4:00 am47 °FCool.5 mph86%30.40 "HgN/A
3:00 am47 °FCool.6 mph86%30.40 "HgN/A
2:00 am47 °FCool.3 mph87%30.40 "HgN/A
1:00 am47 °FCool.5 mph87%30.41 "HgN/A
12:00 am47 °FCool.5 mph86%30.41 "HgN/A
11:00 pm
Thu, Jan 19
47 °FCool.6 mph86%30.41 "HgN/A
10:00 pm48 °FDrizzle. Low clouds.7 mph84%30.41 "Hg6 mi
9:00 pm48 °FCool.5 mph84%30.40 "HgN/A
8:00 pm48 °FCool.3 mph84%30.39 "HgN/A
7:00 pm48 °FDrizzle. Low clouds.3 mph86%30.38 "Hg7 mi
6:00 pm48 °FCool.6 mph87%30.37 "HgN/A
5:00 pm48 °FCool.5 mph86%30.37 "HgN/A
4:00 pm48 °FDrizzle. Low clouds.6 mph86%30.37 "Hg6 mi
3:00 pm48 °FCool.7 mph85%30.37 "HgN/A
2:00 pm48 °FCool.7 mph85%30.38 "HgN/A
1:00 pm48 °FOvercast.5 mph84%30.38 "Hg9 mi
12:00 pm47 °FCool.5 mph88%30.39 "HgN/A
11:00 am47 °FCool.6 mph89%30.38 "HgN/A
10:00 am47 °FDrizzle. Low clouds.8 mph89%30.37 "Hg3 mi
9:00 am47 °FCool.6 mph89%30.36 "HgN/A
8:00 am47 °FCool.6 mph90%30.35 "HgN/A
7:00 am47 °FLow clouds.3 mph90%30.35 "Hg3 mi
Weather by CustomWeather, © 2017

See weather overviewHow to use our weather pages